Regional Weather Roundup
Issued by NWS

Home | Current Version | Previous Version | Graphics & Text | Print | Product List | Glossary On
Versions: 1 2 3 4 5 6 7 8 9 10 11 12 13 14 15 16 17 18 19 20 21 22 23 24 25 26 27 28 29 30 31 32 33 34 35 36 37 38 39 40 41 42 43 44 45 46 47 48 49 50
000
ASUS43 KMKX 111521
RWRWI

WISCONSIN REGIONAL WEATHER ROUNDUP
NATIONAL WEATHER SERVICE MILWAUKEE/SULLIVAN WI
900 AM CST THU FEB 11 2016

NOTE: "FAIR" INDICATES FEW OR NO CLOUDS BELOW 12,000 FEET WITH NO
SIGNIFICANT WEATHER AND/OR OBSTRUCTIONS TO VISIBILITY.

WIZ001-002-006>008-014>016-023>028-111600-
NORTHWEST WISCONSIN

CITY           SKY/WX    TMP DP  RH WIND       PRES   REMARKS
SUPERIOR ARPT  CLOUDY    -5 -11  75 SW5       30.32S WCI -16
ASHLAND        CLOUDY    -1  -4  87 SW9       30.27F WCI -16
HAYWARD        CLOUDY   -14 -18  82 CALM      30.26S
SIREN          CLOUDY    -6 -13  73 CALM      30.31R
CUMBERLAND     MOSUNNY  -13 -18  77 S3        30.27R
RICE LAKE      MOSUNNY   -8 -12  80 CALM      30.30S
CHETEK         MOSUNNY   -6 -10  82 CALM      30.30S
LADYSMITH      CLOUDY    -9 -14  80 CALM      30.27S
EAU CLAIRE     CLOUDY    -1  -6  79 CALM      30.31S
MENOMONIE      CLOUDY     4  -3  71 W5        30.33R WCI  -5
NEW RICHMOND   CLOUDY    -5 -10  81 CALM      30.31S
OSCEOLA        CLOUDY    -2  -7  78 CALM      30.35S
$$

WIZ003>005-009-010-017-018-111600-
NORTH CENTRAL WISCONSIN

CITY           SKY/WX    TMP DP  RH WIND       PRES   REMARKS
MANITOWISH WTR CLOUDY     2  -2  81 NW7       30.17S WCI -10
ARBOR VITAE    SUNNY      5   0  79 NW7       30.16F WCI  -7
WOODRUFF       SUNNY      5   0  79 NW7       30.16F WCI  -7
RHINELANDER    SUNNY      1  -5  75 W7        30.18R WCI -12
EAGLE RIVER    PTSUNNY    3  -2  78 W5        30.15S WCI  -6
LAND O LAKES   CLOUDY     7   2  79 W7        30.15S WCI  -5
PHILLIPS       CLOUDY    -6  -9  84 CALM      30.21S FOG
TOMAHAWK       SUNNY      1  -4  81 W6        30.20S WCI -11
MEDFORD        MOSUNNY   -4  -8  84 W3        30.21R
MERRILL        SUNNY     -3  -8  77 W3        30.23S
$$

WIZ029-030-035-036-043>047-111600-
CENTRAL WISCONSIN

CITY           SKY/WX    TMP DP  RH WIND       PRES   REMARKS
WAUSAU         MOSUNNY    1  -6  72 NW8       30.23R WCI -13
MOSINEE        SUNNY      0  -2  92 CALM      30.24S
MARSHFIELD     MOSUNNY   -3  -9  75 NW6       30.24R WCI -15
STEVENS POINT  SUNNY     -1  -7  77 CALM      30.27S
WAUPACA        SUNNY      9  -2  61 W5        30.29S WCI   1
WAUTOMA        SUNNY      4  -5  66 N6        30.30S WCI  -7
WISC RAPIDS    CLOUDY    -1  -5  82 CALM      30.29S
CAMP DOUGLAS   SUNNY      1   0  92 W2        30.30R
$$

WIZ011>013-019>022-031-037>040-048>050-111600-
NORTHEAST WISCONSIN

CITY           SKY/WX    TMP DP  RH WIND       PRES   REMARKS
ANTIGO         SUNNY      1  -4  80 NW10      30.19R WCI -15
SHAWANO        SUNNY      6  -2  67 W8        30.27S WCI  -6
OCONTO         SUNNY      6  -2  70 W8        30.26R WCI  -7
STURGEON BAY   SUNNY      7  -2  66 NW5       30.26R WCI  -2
GREEN BAY      MOSUNNY    3  -4  72 W7        30.27R WCI  -9
MANITOWOC      SUNNY      8  -1  66 NW8       30.28R WCI  -4
APPLETON       SUNNY      1  -8  66 W9        30.24R WCI -14
CLINTONVILLE   MOSUNNY    3  -4  72 W9        30.27S WCI -11
OSHKOSH        SUNNY      2  -6  69 W7        30.28R WCI -11
$$

WIZ032>034-041-042-053>061-111600-
SOUTHWEST WISCONSIN

CITY           SKY/WX    TMP DP  RH WIND       PRES   REMARKS
LA CROSSE      CLOUDY     1  -4  79 CALM      30.35S
SPARTA         MOSUNNY   -6 -13  73 CALM      30.32F
VIROQUA        CLOUDY     1  -4  77 W6        30.27S WCI -10
BOSCOBEL       CLOUDY     2  -3  80 CALM      30.36S
PRAIRIE DU CHI CLOUDY     4  -4  71 CALM      30.36S
PLATTEVILLE    SUNNY      4  -2  74 N5        30.31S WCI  -5
$$

WIZ056-057-062-063-064-067-068-111600-
SOUTH CENTRAL WISCONSIN

CITY           SKY/WX    TMP DP  RH WIND       PRES   REMARKS
REEDSBURG      CLOUDY    -1  -5  84 CALM      30.32R FOG
BARABOO/DELLS  CLOUDY     1  -5  75 CALM      30.30R
LONE ROCK      CLOUDY    -1  -7  75 CALM      30.35S
MINERAL POINT  CLOUDY     7  -2  66 CALM      30.29S
MADISON        SUNNY      6  -3  66 NW5       30.31R WCI  -3
MIDDLETON      SUNNY      8  -1  66 W6        30.32R WCI  -2
WATERTOWN      SUNNY      7  -1  69 NW6       30.29R WCI  -4
MONROE         SUNNY     10   1  67 N6        30.29R WCI   1
JANESVILLE     SUNNY     10   1  67 NW9       30.31R WCI  -2
$$

WIZ051-052-058>065-066-070>072-111600-
SOUTHEAST WISCONSIN

CITY           SKY/WX    TMP DP  RH WIND       PRES   REMARKS
MILWAUKEE      MOSUNNY    9  -2  61 NW8       30.29R WCI  -3
WAUKESHA       SUNNY      5  -2  72 NW8       30.29R WCI  -8
MILWAUKEE/TIMM SUNNY      9  -2  61 NW6       30.29R WCI  -1
RACINE         SUNNY      8  -3  61 W9        30.30R WCI  -5
BURLINGTON     SUNNY      9  -2  63 NW7       30.30R WCI  -3
KENOSHA        SUNNY      9  -1  64 NW9       30.29R WCI  -4
FOND DU LAC    SUNNY      5  -3  69 NW7       30.29R WCI  -7
SHEBOYGAN      SUNNY      5  -4  66 NW10      30.27R WCI -10
WEST BEND      SUNNY      7  -2  66 CALM      30.27R
JUNEAU         SUNNY      4  -3  70 NW3       30.29S
$$

LSZ147-162-111600-
LAKE SUPERIOR

STATION/POSITION TIME  TEMP    WIND        PRES    WAVE
                       AIR SEA DIR/SP/G            HT/PER
                 (UTC) (F)     (DEG/KT/KT) (MB)    (FT/S)
DEVILS ISLAND    1400    9     300/ 10/ 13 1026.6R
PORT WING        1300   -2     200/  8/ 10 1025.7
SAXON HARBOR     1400    4                 1025.1R
$$

LMZ867-665-643>646-111600-
LAKE MICHIGAN

STATION/POSITION TIME  TEMP    WIND        PRES    WAVE
                       AIR SEA DIR/SP/G            HT/PER
                 (UTC) (F)     (DEG/KT/KT) (MB)    (FT/S)
CHAMBERS ISLAND  1400   11     300/ 10/ 15 1023.7R
ALGOMA LAKESHORE 1441          310/  3/  6   N/A
KEWAUNEE LAKESHO 1400    3     300/  9/ 14 1023.2R
SHEBOYGAN LAKESH 1400    5     300/ 13/ 16 1026.5S
PORT WASHINGTON  1400    6     300/  9/ 11 1026.1
MILWAUKEE LAKESH 1510   10     310/ 10/ 11   N/A
KENOSHA   LAKESH 1400    7     300/ 11/ 15 1025.4R
$$

TC  - TEMPERATURE IN CELSIUS
VSB - VISIBILITY IN STATUTE MILES
WCI - WIND CHILL INDEX
HX  - HEAT INDEX




USA.gov is the U.S. government's official web portal to all federal, state and local government web resources and services.